Voltar ao catálogo

STARLINK-35491

AtivoComunicaçõesVLEO
NORAD 66113·PAYLOAD·🇺🇸 United States

Lançado Oct 19, 2025 de Vandenberg Space Force Base

Loading…

Próximas Passagens (próximas 24 horas)

TLE

AtualizadoSource: CelesTrak SupGP

Época: Sep 14, 2026, 21:22 UTC

1 66113C 25236AD  26257.89076389  .00008460  00000+0  25004-3 0  2575
2 66113  53.1579 303.7461 0001222  85.5495 164.5820 15.34374047    11

Acompanhe STARLINK-35491 em tempo real com AllMySat

Download on the App Store